RYR20LZ LPPT-LEZL

Flight info

Callsign RYR20LZ
Flight time 0h 46m
Altitude 32000
Route DUZO1X DUZOP MINTA OSLEP OSLE2M
Aircraft B38M/M-V/N

Departure

Time 2026-05-05 09:56
Airport Lisbon Humberto Delgado Airport (LPPT)

Arrival

Time 2026-05-05 10:43
Airport Seville Airport (LEZL)
Time Latitude Longitude Altitude Speed Heading
2026-05-05 09:47 38.76443 -9.13828 344 ft 0 kts 169°
2026-05-05 09:48 38.76445 -9.13829 344 ft 2 kts 169°
2026-05-05 09:48 38.76458 -9.13832 344 ft 2 kts 169°
2026-05-05 09:48 38.76475 -9.13836 344 ft 2 kts 169°
2026-05-05 09:48 38.76490 -9.13839 344 ft 2 kts 169°
2026-05-05 09:49 38.76505 -9.13842 344 ft 2 kts 190°
2026-05-05 09:49 38.76519 -9.13835 344 ft 2 kts 222°
2026-05-05 09:49 38.76527 -9.13820 344 ft 1 kts 252°
2026-05-05 09:49 38.76528 -9.13813 344 ft 1 kts 262°
2026-05-05 09:50 38.76528 -9.13809 344 ft 0 kts 258°
2026-05-05 09:52 38.76528 -9.13810 343 ft 0 kts 258°
2026-05-05 09:52 38.76528 -9.13814 344 ft 0 kts 258°
2026-05-05 09:53 38.76527 -9.13822 344 ft 1 kts 259°
2026-05-05 09:53 38.76522 -9.13849 344 ft 4 kts 259°
2026-05-05 09:53 38.76521 -9.13914 342 ft 12 kts 294°
2026-05-05 09:53 38.76560 -9.13955 342 ft 6 kts 308°
2026-05-05 09:54 38.76555 -9.14012 341 ft 7 kts 234°
2026-05-05 09:54 38.76519 -9.14071 339 ft 9 kts 232°
2026-05-05 09:54 38.76497 -9.14153 338 ft 10 kts 271°
2026-05-05 09:54 38.76517 -9.14244 337 ft 10 kts 292°
2026-05-05 09:55 38.76547 -9.14331 337 ft 10 kts 294°
2026-05-05 09:55 38.76593 -9.14401 337 ft 10 kts 336°
2026-05-05 09:55 38.76658 -9.14392 337 ft 9 kts 24°
2026-05-05 09:55 38.76816 -9.14301 340 ft 58 kts 25°
2026-05-05 09:56 38.77520 -9.13918 355 ft 158 kts 22°
2026-05-05 09:56 38.78727 -9.13220 727 ft 207 kts 26°
2026-05-05 09:56 38.80027 -9.12346 1505 ft 228 kts 28°
2026-05-05 09:56 38.81506 -9.11305 2022 ft 264 kts 28°
2026-05-05 09:57 38.83187 -9.10154 2674 ft 279 kts 28°
2026-05-05 09:57 38.84882 -9.08948 3395 ft 287 kts 30°
2026-05-05 09:57 38.86575 -9.07513 4106 ft 296 kts 44°
2026-05-05 09:57 38.87710 -9.05354 4817 ft 299 kts 70°
2026-05-05 09:58 38.87956 -9.02723 5547 ft 302 kts 97°
2026-05-05 09:58 38.87334 -9.00176 6291 ft 305 kts 117°
2026-05-05 09:58 38.85961 -8.98157 6986 ft 309 kts 147°
2026-05-05 09:58 38.83973 -8.97186 7727 ft 311 kts 172°
2026-05-05 09:59 38.81816 -8.97249 8463 ft 315 kts 191°
2026-05-05 09:59 38.79710 -8.98055 9194 ft 319 kts 201°
2026-05-05 09:59 38.77674 -8.99147 9914 ft 322 kts 204°
2026-05-05 09:59 38.75614 -9.00305 10641 ft 325 kts 203°
2026-05-05 10:00 38.73550 -9.01448 11372 ft 329 kts 203°
2026-05-05 10:00 38.71432 -9.02602 12125 ft 332 kts 203°
2026-05-05 10:00 38.69303 -9.03751 12876 ft 334 kts 202°
2026-05-05 10:00 38.67186 -9.04888 13617 ft 336 kts 202°
2026-05-05 10:01 38.65026 -9.06045 14369 ft 337 kts 202°
2026-05-05 10:01 38.62865 -9.07202 15119 ft 338 kts 202°
2026-05-05 10:01 38.60721 -9.08347 15865 ft 337 kts 202°
2026-05-05 10:01 38.58575 -9.09493 16612 ft 336 kts 202°
2026-05-05 10:02 38.56434 -9.10636 17361 ft 335 kts 202°
2026-05-05 10:02 38.54301 -9.11774 18111 ft 333 kts 202°
2026-05-05 10:02 38.52198 -9.12895 18856 ft 330 kts 202°
2026-05-05 10:02 38.50079 -9.14024 19614 ft 329 kts 202°
2026-05-05 10:03 38.47979 -9.15141 20236 ft 332 kts 202°
2026-05-05 10:03 38.45808 -9.16110 20806 ft 336 kts 193°
2026-05-05 10:03 38.43479 -9.16480 21387 ft 339 kts 180°
2026-05-05 10:03 38.41156 -9.16190 21954 ft 342 kts 167°
2026-05-05 10:04 38.38892 -9.15236 22465 ft 346 kts 154°
2026-05-05 10:04 38.36808 -9.13669 22975 ft 350 kts 146°
2026-05-05 10:04 38.34793 -9.11908 23481 ft 353 kts 145°
2026-05-05 10:04 38.32792 -9.10142 23975 ft 356 kts 145°
2026-05-05 10:05 38.30751 -9.08341 24476 ft 359 kts 145°
2026-05-05 10:05 38.28683 -9.06521 24978 ft 361 kts 145°
2026-05-05 10:05 38.26636 -9.04725 25473 ft 363 kts 145°
2026-05-05 10:05 38.24544 -9.02894 25975 ft 364 kts 145°
2026-05-05 10:06 38.22478 -9.01088 26470 ft 365 kts 145°
2026-05-05 10:06 38.20372 -8.99247 26850 ft 369 kts 145°
2026-05-05 10:06 38.18248 -8.97391 27089 ft 377 kts 145°
2026-05-05 10:06 38.16080 -8.95497 27329 ft 384 kts 145°
2026-05-05 10:07 38.13856 -8.93557 27568 ft 391 kts 145°
2026-05-05 10:07 38.11595 -8.91586 27807 ft 398 kts 145°
2026-05-05 10:07 38.09262 -8.89660 28044 ft 404 kts 150°
2026-05-05 10:07 38.06774 -8.87968 28283 ft 410 kts 153°
2026-05-05 10:08 38.04222 -8.86386 28518 ft 415 kts 154°
2026-05-05 10:08 38.01602 -8.84823 28755 ft 420 kts 155°
2026-05-05 10:08 37.98919 -8.83252 28995 ft 425 kts 155°
2026-05-05 10:08 37.96240 -8.81698 29231 ft 429 kts 155°
2026-05-05 10:09 37.93519 -8.80132 29468 ft 433 kts 155°
2026-05-05 10:09 37.90797 -8.78573 29704 ft 437 kts 155°
2026-05-05 10:09 37.88044 -8.77005 29939 ft 440 kts 155°
2026-05-05 10:09 37.85231 -8.75407 30178 ft 443 kts 155°
2026-05-05 10:10 37.82412 -8.73810 30416 ft 446 kts 155°
2026-05-05 10:10 37.79584 -8.72212 30653 ft 449 kts 155°
2026-05-05 10:10 37.76762 -8.70619 30888 ft 451 kts 155°
2026-05-05 10:10 37.73864 -8.68986 31127 ft 453 kts 155°
2026-05-05 10:11 37.71041 -8.67245 31359 ft 455 kts 148°
2026-05-05 10:11 37.68499 -8.64919 31594 ft 457 kts 138°
2026-05-05 10:11 37.66293 -8.62085 31832 ft 458 kts 129°
2026-05-05 10:11 37.64434 -8.58802 31997 ft 461 kts 120°
2026-05-05 10:12 37.61359 -8.51637 31999 ft 466 kts 117°
2026-05-05 10:12 37.58340 -8.44462 31999 ft 465 kts 117°
2026-05-05 10:13 37.55319 -8.37284 31999 ft 465 kts 117°
2026-05-05 10:13 37.52349 -8.30238 31999 ft 465 kts 118°
2026-05-05 10:14 37.49324 -8.23069 32000 ft 465 kts 118°
2026-05-05 10:14 37.46304 -8.15923 31999 ft 465 kts 118°
2026-05-05 10:15 37.43269 -8.08755 32000 ft 465 kts 118°
2026-05-05 10:15 37.40276 -8.01707 32000 ft 465 kts 118°
2026-05-05 10:16 37.37336 -7.94798 32000 ft 465 kts 118°
2026-05-05 10:16 37.34320 -7.87723 32000 ft 465 kts 118°
2026-05-05 10:17 37.31265 -7.80581 32000 ft 465 kts 118°
2026-05-05 10:17 37.28234 -7.73501 32000 ft 465 kts 118°
2026-05-05 10:18 37.25196 -7.66420 31999 ft 465 kts 118°
2026-05-05 10:18 37.22114 -7.59256 32000 ft 465 kts 118°
2026-05-05 10:19 37.19947 -7.54237 32037 ft 461 kts 117°
2026-05-05 10:19 37.18467 -7.50779 32091 ft 440 kts 116°
2026-05-05 10:19 37.17097 -7.47410 32103 ft 439 kts 116°
2026-05-05 10:20 37.14505 -7.40469 32099 ft 440 kts 105°
2026-05-05 10:20 37.13999 -7.36680 32104 ft 441 kts 92°
2026-05-05 10:20 37.14115 -7.33129 32104 ft 442 kts 84°
2026-05-05 10:21 37.15273 -7.25475 32099 ft 444 kts 83°
2026-05-05 10:21 37.15798 -7.17765 32101 ft 443 kts 89°
2026-05-05 10:22 37.15853 -7.10060 32091 ft 442 kts 91°
2026-05-05 10:22 37.15717 -7.02382 32083 ft 441 kts 93°
2026-05-05 10:23 37.15491 -6.94725 32074 ft 439 kts 94°
2026-05-05 10:23 37.15224 -6.87134 32072 ft 439 kts 94°
2026-05-05 10:24 37.14930 -6.79461 32071 ft 439 kts 94°
2026-05-05 10:24 37.14622 -6.71845 32069 ft 439 kts 94°
2026-05-05 10:25 37.14306 -6.64266 31996 ft 435 kts 94°
2026-05-05 10:25 37.14146 -6.60477 31296 ft 429 kts 94°
2026-05-05 10:25 37.13988 -6.56781 30551 ft 423 kts 95°
2026-05-05 10:26 37.13837 -6.53279 29834 ft 418 kts 95°
2026-05-05 10:26 37.13679 -6.49688 29090 ft 413 kts 95°
2026-05-05 10:26 37.13522 -6.46145 28344 ft 408 kts 95°
2026-05-05 10:26 37.13363 -6.42597 27589 ft 404 kts 95°
2026-05-05 10:27 37.13206 -6.39121 26842 ft 400 kts 95°
2026-05-05 10:27 37.13050 -6.35698 26098 ft 396 kts 95°
2026-05-05 10:27 37.12897 -6.32358 25366 ft 393 kts 95°
2026-05-05 10:27 37.12740 -6.28948 24611 ft 390 kts 95°
2026-05-05 10:28 37.12583 -6.25594 23863 ft 387 kts 95°
2026-05-05 10:28 37.12428 -6.22289 23120 ft 384 kts 96°
2026-05-05 10:28 37.12271 -6.18953 22364 ft 381 kts 96°
2026-05-05 10:28 37.12115 -6.15671 21615 ft 378 kts 96°
2026-05-05 10:29 37.11959 -6.12411 20866 ft 376 kts 95°
2026-05-05 10:29 37.11805 -6.09189 20121 ft 373 kts 96°
2026-05-05 10:29 37.11648 -6.05949 19365 ft 371 kts 96°
2026-05-05 10:29 37.11492 -6.02795 18641 ft 368 kts 96°
2026-05-05 10:30 37.11326 -5.99611 17999 ft 362 kts 96°
2026-05-05 10:30 37.11165 -5.96486 17248 ft 361 kts 96°
2026-05-05 10:30 37.11006 -5.93394 16506 ft 359 kts 96°
2026-05-05 10:30 37.10849 -5.90286 15755 ft 357 kts 96°
2026-05-05 10:31 37.10693 -5.87196 15004 ft 355 kts 96°
2026-05-05 10:31 37.10540 -5.84205 14237 ft 340 kts 96°
2026-05-05 10:31 37.10390 -5.81306 13488 ft 329 kts 96°
2026-05-05 10:31 37.10243 -5.78514 12742 ft 319 kts 96°
2026-05-05 10:32 37.10101 -5.75809 12001 ft 312 kts 96°
2026-05-05 10:32 37.09961 -5.73158 11259 ft 306 kts 96°
2026-05-05 10:32 37.09823 -5.70529 10508 ft 300 kts 95°
2026-05-05 10:32 37.09780 -5.67946 9744 ft 297 kts 82°
2026-05-05 10:33 37.10601 -5.65636 9120 ft 291 kts 50°
2026-05-05 10:33 37.12151 -5.64102 8501 ft 288 kts 29°
2026-05-05 10:33 37.13990 -5.63141 7734 ft 288 kts 19°
2026-05-05 10:33 37.15875 -5.62429 7128 ft 281 kts 17°
2026-05-05 10:34 37.17733 -5.61910 6622 ft 272 kts
2026-05-05 10:34 37.19595 -5.61705 6115 ft 265 kts
2026-05-05 10:34 37.21419 -5.61595 5612 ft 259 kts
2026-05-05 10:34 37.23191 -5.61492 5139 ft 253 kts
2026-05-05 10:35 37.24863 -5.61386 5034 ft 234 kts
2026-05-05 10:35 37.26462 -5.61281 4870 ft 229 kts
2026-05-05 10:35 37.28038 -5.61173 4732 ft 224 kts
2026-05-05 10:35 37.29591 -5.61066 4615 ft 225 kts
2026-05-05 10:36 37.31161 -5.60958 4490 ft 225 kts
2026-05-05 10:36 37.32711 -5.60851 4366 ft 224 kts
2026-05-05 10:36 37.34262 -5.60745 4242 ft 224 kts
2026-05-05 10:36 37.35820 -5.60638 4116 ft 223 kts
2026-05-05 10:37 37.37345 -5.60533 3981 ft 214 kts
2026-05-05 10:37 37.38785 -5.60636 3667 ft 209 kts 348°
2026-05-05 10:37 37.40140 -5.61334 3066 ft 214 kts 326°
2026-05-05 10:37 37.41203 -5.62588 2450 ft 209 kts 304°
2026-05-05 10:38 37.41779 -5.64162 2071 ft 189 kts 283°
2026-05-05 10:38 37.41904 -5.65697 2055 ft 166 kts 270°
2026-05-05 10:38 37.41880 -5.67130 2071 ft 162 kts 268°
2026-05-05 10:38 37.41855 -5.68512 2029 ft 155 kts 269°
2026-05-05 10:39 37.41843 -5.69858 2051 ft 150 kts 269°
2026-05-05 10:39 37.41841 -5.71115 2026 ft 141 kts 269°
2026-05-05 10:39 37.41836 -5.72340 2044 ft 140 kts 269°
2026-05-05 10:39 37.41824 -5.73556 2126 ft 135 kts 267°
2026-05-05 10:40 37.41782 -5.74726 2132 ft 137 kts 266°
2026-05-05 10:40 37.41750 -5.75939 2136 ft 141 kts 267°
2026-05-05 10:40 37.41729 -5.77211 2042 ft 149 kts 270°
2026-05-05 10:40 37.41763 -5.78541 1844 ft 157 kts 271°
2026-05-05 10:41 37.41784 -5.79929 1567 ft 150 kts 269°
2026-05-05 10:41 37.41772 -5.81166 1181 ft 137 kts 269°
2026-05-05 10:41 37.41781 -5.82337 930 ft 132 kts 271°
2026-05-05 10:41 37.41786 -5.83496 782 ft 133 kts 271°
2026-05-05 10:42 37.41802 -5.85852 415 ft 137 kts 270°
2026-05-05 10:42 37.41798 -5.87035 218 ft 135 kts 269°
2026-05-05 10:42 37.41799 -5.88183 117 ft 115 kts 269°
2026-05-05 10:43 37.41798 -5.88799 116 ft 39 kts 270°
2026-05-05 10:43 37.41797 -5.88990 116 ft 15 kts 269°
2026-05-05 10:43 37.41798 -5.89117 116 ft 13 kts 275°
2026-05-05 10:43 37.41822 -5.89210 116 ft 10 kts 297°
2026-05-05 10:44 37.41870 -5.89273 116 ft 10 kts 327°
2026-05-05 10:44 37.41932 -5.89321 116 ft 10 kts 329°
2026-05-05 10:44 37.41993 -5.89375 116 ft 10 kts 318°
2026-05-05 10:44 37.42047 -5.89442 116 ft 11 kts 315°
2026-05-05 10:45 37.42103 -5.89513 116 ft 11 kts 314°
2026-05-05 10:45 37.42161 -5.89587 116 ft 12 kts 314°
2026-05-05 10:45 37.42221 -5.89662 116 ft 10 kts 316°
2026-05-05 10:45 37.42270 -5.89714 116 ft 8 kts 344°
2026-05-05 10:46 37.42317 -5.89718 116 ft 6 kts 348°
2026-05-05 10:46 37.42363 -5.89732 116 ft 7 kts 346°
2026-05-05 10:46 37.42388 -5.89740 116 ft 0 kts 344°